Zurück zum Katalog

SSU 2

AktivMilitärLEO
NORAD 8836·PAYLOAD·🇺🇸 United States

Gestartet Apr 30, 1976 von Vandenberg Space Force Base

Loading…

Nächste Überflüge (nächste 24 Stunden)

TLE

AktuellSource: Space-Track

Epoche: Sep 14, 2026, 14:14 UTC

1 08836U 76038D   26257.59317013  .00000079  00000-0  98278-4 0  9994
2 08836  63.3645  19.0481 0372640 181.3801 178.6253 13.82964746363645

Verfolge SSU 2 in Echtzeit mit AllMySat

Download on the App Store